2022-074C (52946 NORAD) Tracking and Keplerian Element Data

This shows tracking and keplerian element data for the satellite.

Feedback or suggestion? Click here.




ElementValue
Catalog52946
Name2022-074C
Epoch Orbit147
Epoch Day192.89915048
Epoch Year2022
RAAN64.682
Inclination44.9944
Eccentricity0.0047481
Argument of Perigee264.5178
Mean Anonmoly95.0292
Mean Motion15.34577139
Decay Rate8.713E-05
L11 52946U 22074C 22192.89915048 .00008713 00000+0 25516-3 0 9991
L22 52946 44.9944 64.6820 0047481 264.5178 95.0292 15.34577139 1479

Live tracking and technical data element details for 2022-074C (NORAD 52946). 2022-074C can be tracked NOW for your location showing map with azimuth and elevation plus other details from your city location.

Track the satellite on the map from your city or location and see movement details for azimuth, elevation, latitude, longitude, range, height, and movement on the map or in text.







IsCatalogInMostPopularTable: catalog: 52946, numindb: 10
Update: records affected: 1



GetName: 52946 2022-074C

Hit Count: updated at: Thu, 06 Oct 2022 05:16:44 GMT